Location: Astronomy Club of Akron Observatory
(40.9700°N, 81.5606°W)
Time: 06:22:53
(UTC-04:00)

Hubble Space Telescope - Visible Passes

Search period start: 22 April 2019 00:00
Search period end: 02 May 2019 00:00
Orbit: 537 x 540 km, 28.5° (Epoch: 21 April)

Date Brightness Start Highest point End Pass type
(mag) Time Alt. Az. Time Alt. Az. Time Alt. Az.
26 Apr 3.1 05:09:46 10° S 05:10:44 11° SSE 05:11:52 10° SSE visible
27 Apr 3.0 04:59:43 12° S 05:00:06 12° S 05:01:45 10° SSE visible
28 Apr 2.9 04:49:42 13° S 04:49:42 13° S 04:51:25 10° SE visible
29 Apr 3.0 04:39:42 13° SSE 04:39:42 13° SSE 04:40:58 10° SE visible
30 Apr 3.1 04:29:45 12° SSE 04:29:45 12° SSE 04:30:26 10° SE visible
